Workout of the Day

« September 21, 2022 »

5 x 750m / 2 min easy

Five 750 meter pieces. Two minutes at light pressure between each 750. (BikeErg: 1500m pieces)

Pos. Name Age Country Result Pace
1101 Natalia Kuznetsova 43 UAE 21:55.4 2:55.3
1102 Stacie Petter 45 USA 21:55.6 2:55.4
1103 Andy Page 53 GBR 21:59.1 2:55.8
1104 Rosemarie Sember 69 USA 22:00.3 2:56.0
1105 Katherine Polace 36 USA 22:00.6 2:56.0
1106 todd wong 60 USA 22:06.7 2:56.8
1107 Layla Swift 46 USA 22:06.9 2:56.9
1108 Kerstin Krojer 40 AUT 22:09.0 2:57.2
1109 kristen goodrich 56 USA 22:09.7 2:57.2
1110 Channah Rosenberg 25 USA 22:13.5 2:57.8
1111 Steven Kaplan 69 USA 22:13.8 2:57.8
1112 Susan Pulse 55 USA 22:15.2 2:58.0
1113 Monica Hill 45 USA 22:16.3 2:58.1
1114 Jean Marc Ostiguy 63 CAN 22:17.3 2:58.3
1115 Bert Cripe 72 USA 22:18.7 2:58.4
1116 Frans Koster 64 NED 22:20.5 2:58.7
1117 Stephen Ryan 44 USA 22:29.5 2:59.9
1118 Corinne Corson 58 USA 22:34.2 3:00.5
1119 Lawrence Templeman 82 USA 22:36.4 3:00.8
1120 Julia Scott 31 NZL 22:47.2 3:02.2
1121 Gustaf Fjelstrom 50 USA 22:53.6 3:03.1
1122 David NARD 44 FRA 23:02.7 3:04.3
1123 Pam Terry 58 USA 23:13.4 3:05.7
1124 CA Nicholson 57 USA 23:14.6 3:05.9
1125 Paige Diffenderfer 35 USA 23:37.3 3:08.9
1126 Kim Silva 41 USA 23:41.6 3:09.5
1127 George Jones 46 USA 24:08.9 3:13.1
1128 patricia postuma 39 NED 24:21.8 3:14.9
1129 joan carlisle 75 USA 24:24.6 3:15.2
1130 Paula Salinger 54 USA 24:28.4 3:15.7
1131 Deborah Carpenter 70 USA 24:32.4 3:16.3
1132 Zheng Liu 34 USA 24:43.2 3:17.7
1133 Lua Kesküla 42 EST 24:45.5 3:18.0
1134 Julie Goodwin 48 USA 24:48.5 3:18.4
1135 Sandra Strahan 54 USA 24:53.4 3:19.1
1136 Neal Sammy 44 GER 24:55.7 3:19.4
1137 M P 47 USA 25:10.8 3:21.4
1138 Veronica Ramirez - USA 25:26.7 3:23.5
1139 Corey Patteson 34 USA 25:42.1 3:25.6
1140 Zillah Martin 69 GBR 25:54.4 3:27.2
1141 Omer Koseoglu 53 TUR 25:59.2 3:27.8
1142 Kathleen Fleming - USA 27:08.9 3:37.1
1143 Paul Yen - USA 27:53.9 3:43.1
1144 Despoina Anastasiadou 49 GRE 28:06.6 3:44.8
1145 Randy Cashner 72 USA 28:30.9 3:48.1
1146 Immi Song 60 USA 28:32.5 3:48.3
1147 Lil Adams 73 USA 28:33.9 3:48.5
1148 Cecilla Murriel 35 USA 29:32.6 3:56.3
1149 Jenn Bunnell 49 USA 31:06.3 4:08.8
1150 Pavlína Jabůrková 44 CZE 37:34.6 5:00.6